Regional Weather Roundup
Issued by NWS State College, PA

Home | Current Version | Previous Version | Graphics & Text | Print | Product List | Glossary Off
Versions: 1 2 3 4 5 6 7 8 9 10 11 12 13 14 15 16 17 18 19 20 21 22 23 24 25 26 27 28 29 30 31 32 33 34 35 36 37 38 39 40 41 42 43 44 45 46 47 48 49 50

000
ASUS41 KCTP 201910
RWRCTP

REGIONAL WEATHER ROUNDUP
NATIONAL WEATHER SERVICE STATE COLLEGE PA
300 PM EDT SUN APR 20 2014

Note: "fair" indicates few or no clouds below 12,000 feet with no
significant weather and/or obstructions to visibility.

* = STATION THAT DOES NOT REPORT PRECIPITATION /E.G. RAIN...SNOW...ETC/
    THUNDER OR FOG.

PAZ002>004-007>009-013>016-020>023-029>032-202000-
WESTERN PENNSYLVANIA

CITY           SKY/WX    TMP DP  RH WIND       PRES   REMARKS
ERIE           MOSUNNY   63  31  30 NE8       30.25F
MEADVILLE      NOT AVBL
FRANKLIN*      SUNNY     68  25  19 SE6       30.29F
NEW CASTLE     FAIR      70  24  17 SE8       30.26F
BEAVER COUNTY  NOT AVBL
BUTLER*        SUNNY     70  25  18 SE13      30.29F
PITTSBURGH INT MOSUNNY   69  20  15 SE10G17   30.25F
PITTSBURGH     SUNNY     70  21  15 S10       30.25F
INDIANA*       SUNNY     66  21  18 SE9       30.29F
LATROBE        SUNNY     66  28  24 E12       30.29F
WASHINGTON CO* SUNNY     70  28  21 E14       30.27F
$$

PAZ004>006-010>012-017>019-024>028-033>037-041-042-045-046-049>053-202000-
CENTRAL PENNSYLVANIA

CITY           SKY/WX    TMP DP  RH WIND       PRES   REMARKS
BRADFORD       MOSUNNY   64  17  16 SE8G17    30.28F
DUBOIS         MOSUNNY   66  22  18 SE9G18    30.29F
CLEARFIELD     MOSUNNY   65  22  19 S8        30.31F
JOHNSTOWN      SUNNY     60  26  27 S12G21    30.30F
ALTOONA        SUNNY     64  29  26 S9        30.32F
STATE COLLEGE  SUNNY     64  25  22 SW7       30.33F
WILLIAMSPORT   SUNNY     65  31  28 SE9       30.33F
SELINSGROVE    SUNNY     65  32  29 VRB5G17   30.35F
FT INDIANTOWN  NOT AVBL
CAPITAL CITY   SUNNY     61  35  37 E9        30.37F
HARRISBURG     MOSUNNY   63  36  36 SE7       30.37F
YORK           SUNNY     62  34  35 CALM      30.36F
$$

PAZ038>040-043-044-047-048-054-055-060>062-067>071-202000-
EASTERN PENNSYLVANIA

CITY           SKY/WX    TMP DP  RH WIND       PRES   REMARKS
SCRANTON       SUNNY     64  26  23 SW7       30.34F
MOUNT POCONO   SUNNY     57  27  31 S12G18    30.37F
ALLENTOWN      SUNNY     60  28  29 VRB7      30.41F
QUAKERTOWN*    SUNNY     59  32  36 SE3       30.41F
READING        SUNNY     62  31  31 CALM      30.38F
LANCASTER      SUNNY     59  34  39 VRB5      30.38F
COATESVILLE    NOT AVBL
POTTSTOWN      SUNNY     58  32  37 CALM      30.41F
BLUE BELL      SUNNY     59  30  33 E3        30.41F
DOYLESTOWN     SUNNY     54  29  38 S9        30.41F
WILLOW GROVE   NOT AVBL
NORTH PHILA    MOSUNNY   57  27  31 SE12G20   30.44F
PHILADELPHIA   MOSUNNY   58  29  33 E10G18    30.42F
$$



USA.gov is the U.S. government's official web portal to all federal, state and local government web resources and services.